[[{"header":{"parameterUnit":"m.s-1","parameterCategory":1,"la1":30.2991,"la2":30.254,"lo1":-89.0895,"lo2":-89.0444,"dy":0.0017,"dx":0.0017,"nx":28,"ny":28,"refTime":"2024-09-30T09:00:00:Z","depth":0,"parameterNumber":2,"parameterNumberName":"U-component_of_WINDS"},"data":[0,0,0,0,0,0,0,0,0,0,0,0,0,0,0,0,0,0,0,0,0,0,0,0,0,0,0,0,0,0,0,0,0,0,0,0,0,0,0,0,0,0,0,0,0,0,0,0,0,0,0,0,0,0,0,0,0,0,-0.6472,-0.6472,0,-0.6432,-0.6431,-0.6431,-0.6388,-0.6387,-0.6387,-0.6386,-0.6344,-0.6344,-0.6343,0,0,0,0,0,0,0,0,0,0,0,0,0,-0.6512,-0.6512,-0.6472,-0.6472,-0.6471,-0.6432,-0.6431,-0.6431,-0.6388,-0.6387,-0.6387,-0.6386,-0.6345,-0.6344,-0.6343,0,0,0,0,0,0,0,0,0,0,0,0,0,-0.6486,-0.6511,-0.6472,-0.6445,-0.6443,-0.6432,-0.6431,-0.643,-0.6388,-0.6387,-0.6386,-0.6386,-0.6345,-0.6344,-0.6343,-0.6356,0,0,-0.6341,-0.634,0,0,0,0,0,0,0,0,-0.6487,-0.6484,-0.645,-0.6447,-0.6444,-0.6414,-0.643,-0.6405,-0.6388,-0.6409,-0.6386,-0.6385,-0.6368,-0.6365,-0.636,-0.6354,-0.6352,-0.634,-0.634,-0.634,-0.6339,0,0,0,0,0,0,0,-0.6489,-0.6486,-0.6456,-0.6449,-0.6446,-0.6435,-0.643,-0.6425,-0.6394,-0.6407,-0.6404,-0.64,-0.6366,-0.6361,-0.6358,-0.6351,-0.634,-0.634,-0.6339,-0.6339,-0.6351,-0.6352,0,0,0,0,0,0,-0.6495,-0.6487,-0.6458,-0.6455,-0.6464,-0.6435,-0.6429,-0.6425,-0.6394,-0.6388,-0.64,-0.6398,-0.6362,-0.6359,-0.6357,-0.6368,-0.634,-0.6339,-0.6338,-0.635,-0.6351,-0.6352,0,0,0,0,0,0,-0.6496,-0.6493,-0.6459,-0.647,-0.6465,-0.6435,-0.643,-0.6424,-0.6418,-0.6389,-0.6383,-0.64,-0.6362,-0.6358,-0.6356,-0.6366,-0.6338,-0.6338,-0.6349,-0.6351,-0.6352,-0.6391,0,0,0,0,0,0,-0.6497,-0.6493,-0.6498,-0.6471,-0.6465,-0.6459,-0.643,-0.6424,-0.6417,-0.6413,-0.6387,-0.6382,-0.6361,-0.6357,-0.6355,-0.6364,-0.6337,-0.6348,-0.635,-0.6351,-0.6389,-0.6394,-0.6398,0,0,0,0,0,-0.6499,-0.6512,-0.6499,-0.6495,-0.647,-0.646,-0.6457,-0.6432,-0.6418,-0.6422,-0.6403,-0.6383,-0.6365,-0.6357,-0.6354,-0.6364,-0.6347,-0.6349,-0.6351,-0.6387,-0.6393,-0.6398,0,0,0,0,0,0,-0.6542,-0.6508,-0.6493,-0.6497,-0.6482,-0.6453,-0.6458,-0.6439,-0.6428,-0.6424,-0.6394,-0.6388,-0.6389,-0.6376,-0.6368,-0.6373,-0.6353,-0.6355,-0.6382,-0.6387,-0.6391,-0.6394,-0.6336,0,0,0,0,0,-0.6551,-0.6546,-0.6517,-0.6523,-0.6516,-0.6488,-0.6483,-0.6465,-0.6448,-0.6441,-0.6422,-0.6406,-0.6396,-0.6391,-0.6381,-0.6387,-0.638,-0.6391,-0.6396,-0.64,-0.6401,-0.6401,-0.6406,-0.6358,-0.6358,-0.6358,0,0,-0.6572,-0.6553,-0.6551,-0.6531,-0.6517,-0.6512,-0.6483,-0.6479,-0.6475,-0.6441,-0.6437,-0.6422,-0.6402,-0.6403,-0.6403,-0.6393,-0.6413,-0.6402,-0.6405,-0.6405,-0.6404,-0.6408,-0.6412,-0.6359,-0.6359,-0.6359,0,0,-0.6606,-0.6592,-0.6595,-0.6581,-0.656,-0.6541,-0.6542,-0.6515,-0.6504,-0.65,-0.6473,-0.6467,-0.6452,-0.6438,-0.6429,-0.6456,-0.6436,-0.6454,-0.6477,-0.6477,-0.6481,-0.6484,-0.6492,-0.6496,-0.6455,-0.6455,-0.6455,0,-0.6634,-0.6625,-0.6599,-0.6596,-0.6587,-0.6555,-0.6557,-0.6545,-0.6522,-0.6516,-0.6505,-0.6484,-0.6468,-0.6465,-0.6471,-0.6466,-0.6464,-0.6456,-0.6483,-0.6486,-0.6488,-0.6496,-0.6499,-0.6457,-0.6457,-0.6457,-0.6457,0,-0.666,-0.6654,-0.6659,-0.6637,-0.6629,-0.6629,-0.6601,-0.6596,-0.6578,-0.656,-0.6555,-0.6535,-0.6519,-0.6517,-0.65,-0.6511,-0.6505,-0.6489,-0.6468,-0.6495,-0.6502,-0.6504,-0.6461,-0.646,-0.6459,-0.6459,0,0,-0.6721,-0.6683,-0.6685,-0.6673,-0.6647,-0.6642,-0.6639,-0.6624,-0.6619,-0.6604,-0.66,-0.6587,-0.6571,-0.6561,-0.6542,-0.6543,-0.6563,-0.6526,-0.6525,-0.6532,-0.6572,-0.6584,-0.6587,-0.655,-0.655,-0.6551,-0.6573,0,-0.675,-0.6744,-0.6719,-0.672,-0.6713,-0.6682,-0.668,-0.6663,-0.6646,-0.6637,-0.6618,-0.6608,-0.6589,-0.6582,-0.6581,-0.6561,-0.657,-0.6559,-0.6545,-0.6545,-0.6551,-0.6591,-0.6604,-0.6626,-0.6575,-0.6576,-0.6576,0,-0.6783,-0.6769,-0.6769,-0.6741,-0.6738,-0.6736,-0.6719,-0.6711,-0.6691,-0.6678,-0.6666,-0.6644,-0.6638,-0.662,-0.6611,-0.6603,-0.6596,-0.6585,-0.6585,-0.6582,-0.6562,-0.6588,-0.6632,-0.6635,-0.658,-0.658,-0.6579,0,-0.6826,-0.6807,-0.6804,-0.6796,-0.6764,-0.6763,-0.6749,-0.6728,-0.672,-0.6704,-0.6698,-0.6682,-0.6674,-0.6662,-0.6636,-0.6625,-0.6629,-0.6608,-0.6617,-0.6618,-0.6619,-0.6619,-0.6662,-0.6616,-0.6616,-0.6616,-0.6616,0,-0.686,-0.6861,-0.6823,-0.6821,-0.6821,-0.6792,-0.6792,-0.6775,-0.6756,-0.675,-0.6722,-0.6717,-0.6683,-0.6674,-0.6653,-0.6648,-0.6645,-0.6633,-0.6628,-0.6635,-0.6637,-0.663,-0.6627,-0.6617,-0.6617,-0.6617,-0.6616,0,-0.6908,-0.6882,-0.6877,-0.6847,-0.6839,-0.684,-0.6813,-0.681,-0.679,-0.6783,-0.6779,-0.6749,-0.6736,-0.6708,-0.6688,-0.6674,-0.6673,-0.6664,-0.668,-0.6677,-0.6687,-0.6686,-0.6725,-0.6728,-0.6682,-0.6683,-0.6683,0,-0.6931,-0.6931,-0.69,-0.6894,-0.6882,-0.6872,-0.6863,-0.6834,-0.6825,-0.6801,-0.68,-0.6785,-0.6771,-0.6751,-0.6727,-0.671,-0.67,-0.6715,-0.6697,-0.6704,-0.6699,-0.6699,-0.6698,-0.6719,-0.672,-0.672,-0.6721,0,-0.6975,-0.6962,-0.695,-0.6934,-0.6923,-0.6909,-0.6893,-0.6889,-0.6856,-0.6847,-0.6834,-0.6823,-0.6801,-0.6786,-0.6766,-0.6751,-0.673,-0.6726,-0.6727,-0.6735,-0.6743,-0.6737,-0.669,-0.6725,-0.6725,-0.6725,-0.6724,-0.6724,-0.701,-0.7008,-0.6986,-0.6973,-0.6958,-0.6943,-0.6938,-0.6917,-0.6905,-0.6886,-0.6869,-0.6856,-0.6833,-0.6804,-0.679,-0.6779,-0.6769,-0.6771,-0.6771,-0.6771,-0.6774,-0.6746,-0.6775,-0.6775,-0.6775,-0.6775,-0.6775,0,-0.7051,-0.7035,-0.7024,-0.7002,-0.6991,-0.6973,-0.6953,-0.6946,-0.6935,-0.6916,-0.6902,-0.6885,-0.687,-0.6844,-0.6825,-0.6821,-0.6811,-0.6817,-0.6817,-0.6814,-0.6785,-0.6785,-0.6826,-0.6826,-0.6826,-0.6826,-0.6826,-0.6826,-0.7072,-0.7067,-0.7051,-0.7037,-0.702,-0.7008,-0.6998,-0.6984,-0.6968,-0.6951,-0.6938,-0.6921,-0.6898,-0.6878,-0.6862,-0.6854,-0.6848,-0.6858,-0.6847,-0.6821,-0.6816,-0.6811,-0.6811,-0.6857,-0.6857,-0.6876,-0.6877,-0.6877]},{"header":{"parameterUnit":"m.s-1","parameterCategory":1,"la1":30.2991,"la2":30.254,"lo1":-89.0895,"lo2":-89.0444,"dy":0.0017,"dx":0.0017,"nx":28,"ny":28,"refTime":"2024-09-30T09:00:00:Z","depth":0,"parameterNumber":3,"parameterNumberName":"V-component_of_WINDS"},"data":[0,0,0,0,0,0,0,0,0,0,0,0,0,0,0,0,0,0,0,0,0,0,0,0,0,0,0,0,0,0,0,0,0,0,0,0,0,0,0,0,0,0,0,0,0,0,0,0,0,0,0,0,0,0,0,0,0,0,-0.6154,-0.6154,0,-0.6142,-0.6142,-0.6142,-0.6125,-0.6125,-0.6124,-0.6124,-0.6111,-0.6111,-0.6111,0,0,0,0,0,0,0,0,0,0,0,0,0,-0.6161,-0.6161,-0.6154,-0.6154,-0.6154,-0.6142,-0.6142,-0.6142,-0.6125,-0.6125,-0.6124,-0.6124,-0.6111,-0.6111,-0.6111,0,0,0,0,0,0,0,0,0,0,0,0,0,-0.6155,-0.6161,-0.6154,-0.6144,-0.6143,-0.6142,-0.6142,-0.6142,-0.6125,-0.6125,-0.6124,-0.6124,-0.6111,-0.6111,-0.6111,-0.612,0,0,-0.6111,-0.6111,0,0,0,0,0,0,0,0,-0.6155,-0.6154,-0.6146,-0.6145,-0.6144,-0.6135,-0.614,-0.6134,-0.6125,-0.6132,-0.6124,-0.6123,-0.6119,-0.6119,-0.6117,-0.6119,-0.6118,-0.6111,-0.6111,-0.6111,-0.6111,0,0,0,0,0,0,0,-0.6155,-0.6155,-0.6149,-0.6146,-0.6144,-0.614,-0.6138,-0.6139,-0.6128,-0.6131,-0.613,-0.6129,-0.6119,-0.6117,-0.6117,-0.6118,-0.6111,-0.6111,-0.6111,-0.6111,-0.6125,-0.6125,0,0,0,0,0,0,-0.6158,-0.6155,-0.615,-0.6149,-0.6148,-0.614,-0.6138,-0.6138,-0.6128,-0.6126,-0.6129,-0.6128,-0.6118,-0.6117,-0.6116,-0.6125,-0.6111,-0.6111,-0.6111,-0.6124,-0.6125,-0.6125,0,0,0,0,0,0,-0.6158,-0.6157,-0.615,-0.6152,-0.6151,-0.614,-0.614,-0.6138,-0.6137,-0.6127,-0.6125,-0.613,-0.6117,-0.6117,-0.6119,-0.6124,-0.6111,-0.6111,-0.6124,-0.6125,-0.6125,-0.6143,0,0,0,0,0,0,-0.6158,-0.6157,-0.6161,-0.6152,-0.6151,-0.6153,-0.614,-0.6138,-0.6137,-0.6135,-0.6127,-0.6125,-0.6117,-0.6119,-0.6119,-0.6124,-0.6111,-0.6123,-0.6124,-0.6125,-0.6141,-0.6144,-0.6146,0,0,0,0,0,-0.6158,-0.6166,-0.6161,-0.6161,-0.6155,-0.6154,-0.6153,-0.6144,-0.6137,-0.614,-0.6134,-0.6125,-0.6124,-0.6119,-0.6119,-0.6124,-0.6123,-0.6124,-0.6125,-0.614,-0.6143,-0.6146,0,0,0,0,0,0,-0.6176,-0.6165,-0.6159,-0.6165,-0.616,-0.6151,-0.6155,-0.6147,-0.6144,-0.6143,-0.6131,-0.613,-0.6133,-0.6129,-0.6124,-0.6131,-0.6122,-0.6123,-0.6134,-0.6137,-0.6139,-0.614,-0.611,0,0,0,0,0,-0.6181,-0.6181,-0.6171,-0.6177,-0.6175,-0.6165,-0.6164,-0.6158,-0.6152,-0.6151,-0.6144,-0.6139,-0.6138,-0.6137,-0.6135,-0.6141,-0.6138,-0.6144,-0.6146,-0.6148,-0.6149,-0.6151,-0.6153,-0.6129,-0.6129,-0.6129,0,0,-0.619,-0.6184,-0.6185,-0.618,-0.6176,-0.6176,-0.6164,-0.6165,-0.6165,-0.6151,-0.6152,-0.6147,-0.6141,-0.6145,-0.6146,-0.6141,-0.6155,-0.6149,-0.6151,-0.615,-0.6152,-0.6154,-0.6156,-0.6129,-0.6129,-0.6129,0,0,-0.6208,-0.6203,-0.6207,-0.6203,-0.6197,-0.619,-0.6191,-0.6182,-0.6178,-0.618,-0.6169,-0.6168,-0.6166,-0.6162,-0.6159,-0.6174,-0.6166,-0.6173,-0.6185,-0.6187,-0.6189,-0.619,-0.6195,-0.6197,-0.6174,-0.6174,-0.6174,0,-0.622,-0.622,-0.621,-0.6212,-0.6209,-0.6197,-0.62,-0.6197,-0.619,-0.6189,-0.6183,-0.6179,-0.6174,-0.6176,-0.618,-0.6178,-0.6179,-0.6175,-0.6189,-0.6191,-0.6192,-0.6196,-0.6198,-0.6175,-0.6175,-0.6175,-0.6175,0,-0.6236,-0.6236,-0.624,-0.6234,-0.6232,-0.6234,-0.6224,-0.6223,-0.6216,-0.621,-0.6211,-0.6204,-0.62,-0.62,-0.6194,-0.6201,-0.6198,-0.6191,-0.6182,-0.6195,-0.6199,-0.6201,-0.6177,-0.6176,-0.6176,-0.6176,0,0,-0.6265,-0.6252,-0.6254,-0.625,-0.6242,-0.6242,-0.6243,-0.6239,-0.6239,-0.6234,-0.6235,-0.6233,-0.6225,-0.6223,-0.6215,-0.6217,-0.6228,-0.6209,-0.6209,-0.6213,-0.6236,-0.6241,-0.6243,-0.6223,-0.6223,-0.6223,-0.6236,0,-0.628,-0.6283,-0.6273,-0.6278,-0.6277,-0.6264,-0.6266,-0.626,-0.6254,-0.6252,-0.6245,-0.6244,-0.6235,-0.6233,-0.6234,-0.6227,-0.6233,-0.6226,-0.6223,-0.6223,-0.6225,-0.6245,-0.6251,-0.6264,-0.6237,-0.6238,-0.6238,0,-0.6299,-0.6296,-0.63,-0.6291,-0.629,-0.6291,-0.6286,-0.6285,-0.6279,-0.6274,-0.627,-0.6261,-0.6261,-0.6252,-0.6252,-0.6247,-0.6245,-0.6241,-0.6242,-0.6241,-0.6231,-0.6245,-0.6267,-0.6269,-0.624,-0.624,-0.624,0,-0.632,-0.6316,-0.6318,-0.6315,-0.6304,-0.6305,-0.6301,-0.6294,-0.6292,-0.6287,-0.6285,-0.6281,-0.6279,-0.6275,-0.6265,-0.6259,-0.6266,-0.6256,-0.6261,-0.6262,-0.6263,-0.6264,-0.6286,-0.6262,-0.6262,-0.6262,-0.6262,0,-0.6338,-0.6341,-0.6327,-0.6328,-0.6331,-0.6319,-0.6322,-0.6316,-0.631,-0.6309,-0.6298,-0.6297,-0.6284,-0.6282,-0.6274,-0.6275,-0.6274,-0.6269,-0.6267,-0.6271,-0.6271,-0.6269,-0.6268,-0.6263,-0.6263,-0.6263,-0.6263,0,-0.6361,-0.6352,-0.6353,-0.6342,-0.634,-0.6342,-0.6333,-0.6333,-0.6326,-0.6325,-0.6324,-0.6313,-0.631,-0.6299,-0.6294,-0.6288,-0.6291,-0.6287,-0.6293,-0.6292,-0.6298,-0.6297,-0.632,-0.6322,-0.6297,-0.6298,-0.6298,0,-0.6374,-0.6376,-0.6365,-0.6364,-0.636,-0.6358,-0.6356,-0.6344,-0.6342,-0.6334,-0.6336,-0.6331,-0.6328,-0.6323,-0.6314,-0.6309,-0.6305,-0.6313,-0.6304,-0.6307,-0.6304,-0.6304,-0.6304,-0.6315,-0.6315,-0.6315,-0.6316,0,-0.6397,-0.6392,-0.6389,-0.6384,-0.6382,-0.6378,-0.6373,-0.6372,-0.6359,-0.6357,-0.6354,-0.6351,-0.6345,-0.634,-0.6334,-0.6329,-0.632,-0.6318,-0.6319,-0.6323,-0.6326,-0.6324,-0.6298,-0.6318,-0.6318,-0.6318,-0.6317,-0.6317,-0.6415,-0.6416,-0.6408,-0.6405,-0.64,-0.6396,-0.6395,-0.6388,-0.6385,-0.6379,-0.6372,-0.6369,-0.6361,-0.6352,-0.6347,-0.6344,-0.634,-0.6341,-0.6342,-0.6342,-0.6343,-0.6327,-0.6343,-0.6343,-0.6343,-0.6343,-0.6343,0,-0.6437,-0.6431,-0.6429,-0.6422,-0.6419,-0.6411,-0.6405,-0.6403,-0.6401,-0.6395,-0.6391,-0.6386,-0.6382,-0.6372,-0.6367,-0.6366,-0.6362,-0.6365,-0.6365,-0.6364,-0.6348,-0.6348,-0.6369,-0.6369,-0.6369,-0.6369,-0.6369,-0.6369,-0.6448,-0.6449,-0.6443,-0.6441,-0.6435,-0.6432,-0.643,-0.6425,-0.642,-0.6415,-0.6412,-0.6405,-0.6397,-0.6391,-0.6386,-0.6383,-0.6382,-0.6386,-0.6382,-0.6367,-0.6365,-0.6363,-0.6362,-0.6386,-0.6386,-0.6398,-0.6398,-0.6398]}]]